Change the Weather History Date:

Monday, October 29, 2012

  Actual Average Record
Temperature  
Mean Temperature 44 °F -  
Max Temperature 45 °F 52 °F 80 °F (2000)
Min Temperature 42 °F 39 °F 28 °F (2013)
Degree Days  
Heating Degree Days 22    
Moisture  
Dew Point 35 °F    
Average Humidity 72    
Maximum Humidity 82    
Minimum Humidity 63    
Precipitation  
Precipitation 0.02 in - - ()
Sea Level Pressure  
Sea Level Pressure 30.01 in    
Wind  
Wind Speed 23 mph (North)    
Max Wind Speed 33 mph    
Max Gust Speed 52 mph    
Averages and records for this station are not official NWS values.
T = Trace of Precipitation, MM = Missing Value Source: NWS Daily Summary

Daily Weather History Graph

Daily Weather History Graph

Search for Another Location

Airport or City:

Trip Planner

Search our weather history database for the weather conditions in past years. The results will help you decide how hot, cold, wet, or windy it might be!

Date:

Astronomy

Oct. 29, 2012 Rise Set
Actual Time 8:04 AM EDT 6:24 PM EDT
Civil Twilight 7:34 AM EDT 6:54 PM EDT
Nautical Twilight 7:00 AM EDT 7:28 PM EDT
Astronomical Twilight 6:26 AM EDT 8:01 PM EDT
Moon 6:14 PM EDT (10/29) 7:54 AM EDT (10/29)
Length of Visible Light 11h 20m
Length of Day
10h 20m
Full, 100% of the Moon is Illuminated
Oct 29
Full
Oct 29
Full
Nov 6
Last Quarter
Nov 13
New
Nov 20
First Quarter

Hourly Weather History & Observations

Time (EDT) Temp. Windchill Dew Point Humidity Pressure Visibility Wind Dir Wind Speed Gust Speed Precip Events Conditions
12:51 AM 45.0 °F 36.2 °F 33.1 °F 63% 30.13 in - NNE 24.2 mph 33.4 mph N/A   Unknown
1:51 AM 45.0 °F 36.0 °F 34.0 °F 65% 30.12 in - North 25.3 mph 32.2 mph N/A   Unknown
2:51 AM 44.1 °F 35.2 °F 34.0 °F 68% 30.11 in - North 23.0 mph 33.4 mph N/A   Unknown
3:51 AM 43.0 °F 35.4 °F 34.0 °F 71% 30.10 in - North 16.1 mph 33.4 mph N/A   Unknown
4:51 AM 43.0 °F 34.8 °F 35.1 °F 74% 30.10 in - North 18.4 mph 32.2 mph N/A   Unknown
5:51 AM 43.0 °F 33.5 °F 35.1 °F 74% 30.10 in - North 24.2 mph 36.8 mph N/A   Unknown
6:51 AM 43.0 °F 32.9 °F 35.1 °F 74% 30.09 in - North 27.6 mph 35.7 mph N/A   Unknown
7:51 AM 43.0 °F 33.3 °F 37.0 °F 80% 30.09 in - North 25.3 mph 33.4 mph N/A   Unknown
8:51 AM 43.0 °F 32.7 °F 37.9 °F 82% 30.10 in - North 28.8 mph 36.8 mph N/A   Unknown
9:51 AM 43.0 °F 32.7 °F 37.0 °F 80% 30.09 in - North 28.8 mph 43.7 mph N/A   Unknown
10:51 AM 43.0 °F 32.7 °F 36.0 °F 76% 30.08 in - North 28.8 mph 39.1 mph N/A   Unknown
11:51 AM 43.0 °F 32.5 °F 36.0 °F 76% 30.07 in - North 29.9 mph 40.3 mph N/A   Unknown
12:51 PM 43.0 °F 35.7 °F 36.0 °F 76% 30.06 in - North 15.0 mph 27.6 mph N/A   Unknown
1:51 PM 43.0 °F 36.0 °F 35.1 °F 74% 30.05 in - North 13.8 mph 29.9 mph N/A   Unknown
2:51 PM 44.1 °F 37.7 °F 34.0 °F 68% 30.03 in - North 12.7 mph 26.5 mph N/A   Unknown
3:51 PM 44.1 °F 37.7 °F 34.0 °F 68% 30.01 in - North 12.7 mph 39.1 mph N/A   Unknown
4:51 PM 45.0 °F 37.6 °F 33.1 °F 63% 29.98 in - North 17.3 mph 36.8 mph N/A   Unknown
5:18 PM 44.6 °F 36.6 °F 33.8 °F 66% 29.95 in - North 19.6 mph 40.3 mph N/A   Squalls
5:51 PM 45.0 °F 38.9 °F 33.1 °F 63% 29.96 in - North 12.7 mph 34.5 mph N/A   Unknown
6:51 PM 45.0 °F 37.4 °F 33.1 °F 63% 29.95 in - North 18.4 mph 38.0 mph N/A   Unknown
7:51 PM 44.1 °F 34.4 °F 34.0 °F 68% 29.92 in - North 27.6 mph 44.9 mph N/A   Unknown
8:51 PM 43.0 °F 32.0 °F 35.1 °F 74% 29.88 in - North 33.4 mph 46.0 mph N/A   Squalls
9:51 PM 42.1 °F 33.6 °F 35.1 °F 76% 29.85 in - North 18.4 mph 44.9 mph N/A   Unknown
10:51 PM 42.1 °F 32.6 °F 35.1 °F 76% 29.82 in - North 23.0 mph 41.4 mph 0.01 in   Unknown
11:40 PM 42.8 °F 31.9 °F 35.6 °F 76% 29.75 in - North 32.2 mph 47.2 mph 0.01 in   Squalls
11:51 PM 42.1 °F 33.9 °F 35.1 °F 76% 29.77 in - North 17.3 mph 51.8 mph 0.01 in   Unknown